Location: Treviso
(45.6669°N, 12.2430°E)
Time: 06:01:28
(UTC+01:00)

ISS - Pass Details

Date: 12 November 2018
Orbit: 402 x 408 km, 51.6° (Epoch: 16 November)

Event Time Altitude Azimuth Distance (km) Brightness Sun altitude
Exits shadow 04:18:58 16° 83° (E) 1,164 -0.7 -29.2°
Drops below altitude 10° 04:19:46 10° 89° (E) 1,461 -0.1 -29.1°
Sets 04:21:55 0° 97° (E) 2,321 1.2 -28.7°
